Location: Auckland
(36.8670°S, 174.7670°E)
Time: 19:11:38
(UTC+12:00)

Courier 1B Rocket - Pass Details

Date: 19 July 2019
Orbit: 920 x 1202 km, 28.2° (Epoch: 25 August)

Event Time Altitude Azimuth Distance (km) Brightness Sun altitude
Rises 08:02:36 0° 282° (WNW) 3,948 7.7 5.0°
Reaches altitude 10° 08:05:37 10° 288° (WNW) 2,946 7.2 5.5°
Maximum altitude 08:12:16 41° 355° (N) 1,472 6.4 6.7°
Drops below altitude 10° 08:18:28 10° 63° (ENE) 2,750 10.2 7.7°
Sets 08:21:11 0° 70° (ENE) 3,660 9.9 8.2°
